owner,sensor,date,latitude,longitude,vertical_datum,sea_water_practical_salinity,qcFlag 
DISL,ioos:station:DISL:MHPA:1,2019-08-01T00:00:00Z,30.6671,-87.9365,1.0,0.52,11111222 
DISL,ioos:station:DISL:MHPA:1,2019-08-01T00:30:00Z,30.6671,-87.9365,1.0,0.52,11111222 
DISL,ioos:station:DISL:MHPA:1,2019-08-01T01:00:00Z,30.6671,-87.9365,0.9,0.52,11111222 
DISL,ioos:station:DISL:MHPA:1,2019-08-01T01:30:00Z,30.6671,-87.9365,0.9,0.52,11111222 
DISL,ioos:station:DISL:MHPA:1,2019-08-01T02:00:00Z,30.6671,-87.9365,0.9,0.51,11111222 
DISL,ioos:station:DISL:MHPA:1,2019-08-01T02:30:00Z,30.6671,-87.9365,0.9,0.52,11111222 
DISL,ioos:station:DISL:MHPA:1,2019-08-01T03:00:00Z,30.6671,-87.9365,0.8,0.51,11111222 
DISL,ioos:station:DISL:MHPA:1,2019-08-01T03:30:00Z,30.6671,-87.9365,0.8,0.51,11111222 
DISL,ioos:station:DISL:MHPA:1,2019-08-01T04:00:00Z,30.6671,-87.9365,0.8,0.52,11111222 
DISL,ioos:station:DISL:MHPA:1,2019-08-01T04:30:00Z,30.6671,-87.9365,0.8,0.52,11111222 
DISL,ioos:station:DISL:MHPA:1,2019-08-01T05:00:00Z,30.6671,-87.9365,0.8,0.52,11111222 
DISL,ioos:station:DISL:MHPA:1,2019-08-01T05:30:00Z,30.6671,-87.9365,0.8,0.52,11111222 
DISL,ioos:station:DISL:MHPA:1,2019-08-01T06:00:00Z,30.6671,-87.9365,0.8,0.52,11111222 
DISL,ioos:station:DISL:MHPA:1,2019-08-01T06:30:00Z,30.6671,-87.9365,0.8,0.53,11111222 
DISL,ioos:station:DISL:MHPA:1,2019-08-01T07:00:00Z,30.6671,-87.9365,0.8,0.53,11111222 
DISL,ioos:station:DISL:MHPA:1,2019-08-01T07:30:00Z,30.6671,-87.9365,0.9,0.53,11111222 
DISL,ioos:station:DISL:MHPA:1,2019-08-01T08:00:00Z,30.6671,-87.9365,0.9,0.53,11111222 
DISL,ioos:station:DISL:MHPA:1,2019-08-01T08:30:00Z,30.6671,-87.9365,1.0,0.53,11111222 
DISL,ioos:station:DISL:MHPA:1,2019-08-01T09:00:00Z,30.6671,-87.9365,1.0,0.54,11111222 
DISL,ioos:station:DISL:MHPA:1,2019-08-01T09:30:00Z,30.6671,-87.9365,1.1,0.53,11111222 
DISL,ioos:station:DISL:MHPA:1,2019-08-01T10:00:00Z,30.6671,-87.9365,1.1,0.54,11111222 
DISL,ioos:station:DISL:MHPA:1,2019-08-01T10:30:00Z,30.6671,-87.9365,1.2,0.55,11111222 
DISL,ioos:station:DISL:MHPA:1,2019-08-01T11:00:00Z,30.6671,-87.9365,1.2,0.56,11111222 
DISL,ioos:station:DISL:MHPA:1,2019-08-01T11:30:00Z,30.6671,-87.9365,1.2,0.57,11111222 
DISL,ioos:station:DISL:MHPA:1,2019-08-01T12:00:00Z,30.6671,-87.9365,1.3,0.57,11111222 
DISL,ioos:station:DISL:MHPA:1,2019-08-01T12:30:00Z,30.6671,-87.9365,1.3,0.56,11111222 
DISL,ioos:station:DISL:MHPA:1,2019-08-01T13:00:00Z,30.6671,-87.9365,1.4,0.56,11111222 
DISL,ioos:station:DISL:MHPA:1,2019-08-01T13:30:00Z,30.6671,-87.9365,1.4,0.56,11111222 
DISL,ioos:station:DISL:MHPA:1,2019-08-01T14:00:00Z,30.6671,-87.9365,1.4,0.56,11111222 
DISL,ioos:station:DISL:MHPA:1,2019-08-01T14:30:00Z,30.6671,-87.9365,1.4,0.54,11111222 
DISL,ioos:station:DISL:MHPA:1,2019-08-01T15:00:00Z,30.6671,-87.9365,1.5,0.55,11111222 
DISL,ioos:station:DISL:MHPA:1,2019-08-01T15:30:00Z,30.6671,-87.9365,1.5,0.55,11111222 
DISL,ioos:station:DISL:MHPA:1,2019-08-01T16:00:00Z,30.6671,-87.9365,1.6,0.54,11111222 
DISL,ioos:station:DISL:MHPA:1,2019-08-01T16:30:00Z,30.6671,-87.9365,1.6,0.55,11111222 
DISL,ioos:station:DISL:MHPA:1,2019-08-01T17:00:00Z,30.6671,-87.9365,1.6,0.55,11111222 
DISL,ioos:station:DISL:MHPA:1,2019-08-01T17:30:00Z,30.6671,-87.9365,1.6,0.55,11111222 
DISL,ioos:station:DISL:MHPA:1,2019-08-01T18:00:00Z,30.6671,-87.9365,1.6,0.56,11111222 
DISL,ioos:station:DISL:MHPA:1,2019-08-01T18:30:00Z,30.6671,-87.9365,1.6,0.56,11111222 
DISL,ioos:station:DISL:MHPA:1,2019-08-01T19:00:00Z,30.6671,-87.9365,1.6,0.57,11111222 
DISL,ioos:station:DISL:MHPA:1,2019-08-01T19:30:00Z,30.6671,-87.9365,1.5,0.57,11111222 
DISL,ioos:station:DISL:MHPA:1,2019-08-01T20:00:00Z,30.6671,-87.9365,1.5,0.57,11111222 
DISL,ioos:station:DISL:MHPA:1,2019-08-01T20:30:00Z,30.6671,-87.9365,1.4,0.56,11111222 
DISL,ioos:station:DISL:MHPA:1,2019-08-01T21:00:00Z,30.6671,-87.9365,1.4,0.54,11111222 
DISL,ioos:station:DISL:MHPA:1,2019-08-01T21:30:00Z,30.6671,-87.9365,1.4,0.54,11111222 
DISL,ioos:station:DISL:MHPA:1,2019-08-01T22:00:00Z,30.6671,-87.9365,1.3,0.54,11111222 
DISL,ioos:station:DISL:MHPA:1,2019-08-01T22:30:00Z,30.6671,-87.9365,1.3,0.58,11111222 
DISL,ioos:station:DISL:MHPA:1,2019-08-01T23:00:00Z,30.6671,-87.9365,1.2,0.58,11111222 
DISL,ioos:station:DISL:MHPA:1,2019-08-01T23:30:00Z,30.6671,-87.9365,1.1,0.59,11111222 
DISL,ioos:station:DISL:MHPA:1,2019-08-02T00:00:00Z,30.6671,-87.9365,1.1,0.61,11111222 
DISL,ioos:station:DISL:MHPA:1,2019-08-02T00:30:00Z,30.6671,-87.9365,1.0,0.6,11111222 
DISL,ioos:station:DISL:MHPA:1,2019-08-02T01:00:00Z,30.6671,-87.9365,1.0,0.6,11111222 
DISL,ioos:station:DISL:MHPA:1,2019-08-02T01:30:00Z,30.6671,-87.9365,0.9,0.6,11111222 
DISL,ioos:station:DISL:MHPA:1,2019-08-02T02:00:00Z,30.6671,-87.9365,0.9,0.6,11111222 
DISL,ioos:station:DISL:MHPA:1,2019-08-02T02:30:00Z,30.6671,-87.9365,0.9,0.6,11111222 
DISL,ioos:station:DISL:MHPA:1,2019-08-02T03:00:00Z,30.6671,-87.9365,0.9,0.6,11111222 
DISL,ioos:station:DISL:MHPA:1,2019-08-02T03:30:00Z,30.6671,-87.9365,0.9,0.67,11111222 
DISL,ioos:station:DISL:MHPA:1,2019-08-02T04:00:00Z,30.6671,-87.9365,0.8,0.65,11111222 
DISL,ioos:station:DISL:MHPA:1,2019-08-02T04:30:00Z,30.6671,-87.9365,0.8,0.63,11111222 
DISL,ioos:station:DISL:MHPA:1,2019-08-02T05:00:00Z,30.6671,-87.9365,0.8,0.64,11111222 
DISL,ioos:station:DISL:MHPA:1,2019-08-02T05:30:00Z,30.6671,-87.9365,0.8,0.64,11111222 
DISL,ioos:station:DISL:MHPA:1,2019-08-02T06:00:00Z,30.6671,-87.9365,0.8,0.64,11111222 
DISL,ioos:station:DISL:MHPA:1,2019-08-02T06:30:00Z,30.6671,-87.9365,0.8,0.64,11111222 
DISL,ioos:station:DISL:MHPA:1,2019-08-02T07:00:00Z,30.6671,-87.9365,0.8,0.64,11111222 
DISL,ioos:station:DISL:MHPA:1,2019-08-02T07:30:00Z,30.6671,-87.9365,0.8,0.65,11111222 
DISL,ioos:station:DISL:MHPA:1,2019-08-02T08:00:00Z,30.6671,-87.9365,0.8,0.66,11111222 
DISL,ioos:station:DISL:MHPA:1,2019-08-02T08:30:00Z,30.6671,-87.9365,0.9,0.67,11111222 
DISL,ioos:station:DISL:MHPA:1,2019-08-02T09:00:00Z,30.6671,-87.9365,0.9,0.66,11111222 
DISL,ioos:station:DISL:MHPA:1,2019-08-02T09:30:00Z,30.6671,-87.9365,1.0,0.66,11111222 
DISL,ioos:station:DISL:MHPA:1,2019-08-02T10:00:00Z,30.6671,-87.9365,1.0,0.66,11111222 
DISL,ioos:station:DISL:MHPA:1,2019-08-02T10:30:00Z,30.6671,-87.9365,1.1,0.67,11111222 
DISL,ioos:station:DISL:MHPA:1,2019-08-02T11:00:00Z,30.6671,-87.9365,1.1,0.67,11111222 
DISL,ioos:station:DISL:MHPA:1,2019-08-02T11:30:00Z,30.6671,-87.9365,1.2,0.68,11111222 
DISL,ioos:station:DISL:MHPA:1,2019-08-02T12:00:00Z,30.6671,-87.9365,1.2,0.67,11111222 
DISL,ioos:station:DISL:MHPA:1,2019-08-02T12:30:00Z,30.6671,-87.9365,1.2,0.67,11111222 
DISL,ioos:station:DISL:MHPA:1,2019-08-02T13:00:00Z,30.6671,-87.9365,1.3,0.66,11111222 
DISL,ioos:station:DISL:MHPA:1,2019-08-02T13:30:00Z,30.6671,-87.9365,1.4,0.66,11111222 
DISL,ioos:station:DISL:MHPA:1,2019-08-02T14:00:00Z,30.6671,-87.9365,1.4,0.66,11111222 
DISL,ioos:station:DISL:MHPA:1,2019-08-02T14:30:00Z,30.6671,-87.9365,1.4,0.65,11111222 
DISL,ioos:station:DISL:MHPA:1,2019-08-02T15:00:00Z,30.6671,-87.9365,1.5,0.66,11111222 
DISL,ioos:station:DISL:MHPA:1,2019-08-02T15:30:00Z,30.6671,-87.9365,1.5,0.68,11111222 
DISL,ioos:station:DISL:MHPA:1,2019-08-02T16:00:00Z,30.6671,-87.9365,1.5,0.67,11111222 
DISL,ioos:station:DISL:MHPA:1,2019-08-02T16:30:00Z,30.6671,-87.9365,1.6,0.67,11111222 
DISL,ioos:station:DISL:MHPA:1,2019-08-02T17:00:00Z,30.6671,-87.9365,1.6,0.6,11111222 
DISL,ioos:station:DISL:MHPA:1,2019-08-02T17:30:00Z,30.6671,-87.9365,1.6,0.61,11111222 
DISL,ioos:station:DISL:MHPA:1,2019-08-02T18:00:00Z,30.6671,-87.9365,1.6,0.63,11111222 
DISL,ioos:station:DISL:MHPA:1,2019-08-02T18:30:00Z,30.6671,-87.9365,1.7,0.65,11111222 
DISL,ioos:station:DISL:MHPA:1,2019-08-02T19:00:00Z,30.6671,-87.9365,1.6,0.66,11111222 
DISL,ioos:station:DISL:MHPA:1,2019-08-02T19:30:00Z,30.6671,-87.9365,1.5,0.69,11111222 
DISL,ioos:station:DISL:MHPA:1,2019-08-02T20:00:00Z,30.6671,-87.9365,1.5,0.64,11111222 
DISL,ioos:station:DISL:MHPA:1,2019-08-02T20:30:00Z,30.6671,-87.9365,1.5,0.63,11111222 
DISL,ioos:station:DISL:MHPA:1,2019-08-02T21:00:00Z,30.6671,-87.9365,1.4,0.62,11111222 
DISL,ioos:station:DISL:MHPA:1,2019-08-02T21:30:00Z,30.6671,-87.9365,1.4,0.62,11111222 
DISL,ioos:station:DISL:MHPA:1,2019-08-02T22:00:00Z,30.6671,-87.9365,1.4,0.63,11111222 
DISL,ioos:station:DISL:MHPA:1,2019-08-02T22:30:00Z,30.6671,-87.9365,1.3,0.68,11111222 
DISL,ioos:station:DISL:MHPA:1,2019-08-02T23:00:00Z,30.6671,-87.9365,1.3,0.68,11111222 
DISL,ioos:station:DISL:MHPA:1,2019-08-02T23:30:00Z,30.6671,-87.9365,1.2,0.68,11111222 
DISL,ioos:station:DISL:MHPA:1,2019-08-03T00:00:00Z,30.6671,-87.9365,1.2,0.73,11111222 
DISL,ioos:station:DISL:MHPA:1,2019-08-03T00:30:00Z,30.6671,-87.9365,1.1,0.76,11111222 
DISL,ioos:station:DISL:MHPA:1,2019-08-03T01:00:00Z,30.6671,-87.9365,1.1,0.8,11111222 
DISL,ioos:station:DISL:MHPA:1,2019-08-03T01:30:00Z,30.6671,-87.9365,1.0,0.79,11111222 
DISL,ioos:station:DISL:MHPA:1,2019-08-03T02:00:00Z,30.6671,-87.9365,1.0,0.88,11111222 
DISL,ioos:station:DISL:MHPA:1,2019-08-03T02:30:00Z,30.6671,-87.9365,1.0,0.83,11111222 
DISL,ioos:station:DISL:MHPA:1,2019-08-03T03:00:00Z,30.6671,-87.9365,0.9,0.88,11111222 
DISL,ioos:station:DISL:MHPA:1,2019-08-03T03:30:00Z,30.6671,-87.9365,0.9,0.9,11111222 
DISL,ioos:station:DISL:MHPA:1,2019-08-03T04:00:00Z,30.6671,-87.9365,0.9,0.85,11111222 
DISL,ioos:station:DISL:MHPA:1,2019-08-03T04:30:00Z,30.6671,-87.9365,0.9,0.84,11111222 
DISL,ioos:station:DISL:MHPA:1,2019-08-03T05:00:00Z,30.6671,-87.9365,0.9,0.78,11111222 
DISL,ioos:station:DISL:MHPA:1,2019-08-03T05:30:00Z,30.6671,-87.9365,0.9,0.8,11111222 
DISL,ioos:station:DISL:MHPA:1,2019-08-03T06:00:00Z,30.6671,-87.9365,0.9,0.82,11111222 
DISL,ioos:station:DISL:MHPA:1,2019-08-03T06:30:00Z,30.6671,-87.9365,0.9,0.88,11111222 
DISL,ioos:station:DISL:MHPA:1,2019-08-03T07:00:00Z,30.6671,-87.9365,0.9,0.88,11111222 
DISL,ioos:station:DISL:MHPA:1,2019-08-03T07:30:00Z,30.6671,-87.9365,0.9,0.89,11111222 
DISL,ioos:station:DISL:MHPA:1,2019-08-03T08:00:00Z,30.6671,-87.9365,0.9,0.86,11111222 
DISL,ioos:station:DISL:MHPA:1,2019-08-03T08:30:00Z,30.6671,-87.9365,1.0,0.87,11111222 
DISL,ioos:station:DISL:MHPA:1,2019-08-03T09:00:00Z,30.6671,-87.9365,1.1,0.84,11111222 
DISL,ioos:station:DISL:MHPA:1,2019-08-03T09:30:00Z,30.6671,-87.9365,1.1,0.82,11111222 
DISL,ioos:station:DISL:MHPA:1,2019-08-03T10:00:00Z,30.6671,-87.9365,1.1,0.82,11111222 
DISL,ioos:station:DISL:MHPA:1,2019-08-03T10:30:00Z,30.6671,-87.9365,1.2,0.91,11111222 
DISL,ioos:station:DISL:MHPA:1,2019-08-03T11:00:00Z,30.6671,-87.9365,1.2,0.9,11111222 
DISL,ioos:station:DISL:MHPA:1,2019-08-03T11:30:00Z,30.6671,-87.9365,1.2,0.87,11111222 
DISL,ioos:station:DISL:MHPA:1,2019-08-03T12:00:00Z,30.6671,-87.9365,1.3,0.87,11111222 
DISL,ioos:station:DISL:MHPA:1,2019-08-03T12:30:00Z,30.6671,-87.9365,1.3,0.87,11111222 
DISL,ioos:station:DISL:MHPA:1,2019-08-03T13:00:00Z,30.6671,-87.9365,1.3,0.89,11111222 
DISL,ioos:station:DISL:MHPA:1,2019-08-03T13:30:00Z,30.6671,-87.9365,1.3,0.89,11111222 
DISL,ioos:station:DISL:MHPA:1,2019-08-03T14:00:00Z,30.6671,-87.9365,1.4,0.88,11111222 
DISL,ioos:station:DISL:MHPA:1,2019-08-03T14:30:00Z,30.6671,-87.9365,1.4,0.86,11111222 
DISL,ioos:station:DISL:MHPA:1,2019-08-03T15:00:00Z,30.6671,-87.9365,1.4,0.88,11111222 
DISL,ioos:station:DISL:MHPA:1,2019-08-03T15:30:00Z,30.6671,-87.9365,1.5,0.89,11111222 
DISL,ioos:station:DISL:MHPA:1,2019-08-03T16:00:00Z,30.6671,-87.9365,1.5,0.88,11111222 
DISL,ioos:station:DISL:MHPA:1,2019-08-03T16:30:00Z,30.6671,-87.9365,1.5,0.85,11111222 
DISL,ioos:station:DISL:MHPA:1,2019-08-03T17:00:00Z,30.6671,-87.9365,1.5,0.84,11111222 
DISL,ioos:station:DISL:MHPA:1,2019-08-03T17:30:00Z,30.6671,-87.9365,1.6,0.86,11111222 
DISL,ioos:station:DISL:MHPA:1,2019-08-03T18:00:00Z,30.6671,-87.9365,1.6,0.85,11111222 
DISL,ioos:station:DISL:MHPA:1,2019-08-03T18:30:00Z,30.6671,-87.9365,1.6,0.87,11111222 
DISL,ioos:station:DISL:MHPA:1,2019-08-03T19:00:00Z,30.6671,-87.9365,1.6,0.86,11111222 
DISL,ioos:station:DISL:MHPA:1,2019-08-03T19:30:00Z,30.6671,-87.9365,1.6,0.86,11111222 
DISL,ioos:station:DISL:MHPA:1,2019-08-03T20:00:00Z,30.6671,-87.9365,1.6,0.89,11111222 
DISL,ioos:station:DISL:MHPA:1,2019-08-03T20:30:00Z,30.6671,-87.9365,1.5,0.95,11111222 
DISL,ioos:station:DISL:MHPA:1,2019-08-03T21:00:00Z,30.6671,-87.9365,1.5,1.0,11111222 
DISL,ioos:station:DISL:MHPA:1,2019-08-03T21:30:00Z,30.6671,-87.9365,1.4,0.97,11111222 
DISL,ioos:station:DISL:MHPA:1,2019-08-03T22:00:00Z,30.6671,-87.9365,1.4,0.98,11111222 
DISL,ioos:station:DISL:MHPA:1,2019-08-03T22:30:00Z,30.6671,-87.9365,1.4,0.95,11111222 
DISL,ioos:station:DISL:MHPA:1,2019-08-03T23:00:00Z,30.6671,-87.9365,1.4,0.95,11111222 
DISL,ioos:station:DISL:MHPA:1,2019-08-03T23:30:00Z,30.6671,-87.9365,1.3,0.94,11111222 
DISL,ioos:station:DISL:MHPA:1,2019-08-04T00:00:00Z,30.6671,-87.9365,1.3,0.89,11111222 
DISL,ioos:station:DISL:MHPA:1,2019-08-04T00:30:00Z,30.6671,-87.9365,1.2,0.91,11111222 
DISL,ioos:station:DISL:MHPA:1,2019-08-04T01:00:00Z,30.6671,-87.9365,1.2,0.91,11111222 
DISL,ioos:station:DISL:MHPA:1,2019-08-04T01:30:00Z,30.6671,-87.9365,1.1,0.93,11111222 
DISL,ioos:station:DISL:MHPA:1,2019-08-04T02:00:00Z,30.6671,-87.9365,1.1,0.93,11111222 
DISL,ioos:station:DISL:MHPA:1,2019-08-04T02:30:00Z,30.6671,-87.9365,1.1,0.9,11111222 
DISL,ioos:station:DISL:MHPA:1,2019-08-04T03:00:00Z,30.6671,-87.9365,1.1,0.91,11111222 
DISL,ioos:station:DISL:MHPA:1,2019-08-04T03:30:00Z,30.6671,-87.9365,1.0,0.9,11111222 
DISL,ioos:station:DISL:MHPA:1,2019-08-04T04:00:00Z,30.6671,-87.9365,1.0,0.89,11111222 
DISL,ioos:station:DISL:MHPA:1,2019-08-04T04:30:00Z,30.6671,-87.9365,1.0,0.87,11111222 
DISL,ioos:station:DISL:MHPA:1,2019-08-04T05:00:00Z,30.6671,-87.9365,1.0,0.97,11111222 
DISL,ioos:station:DISL:MHPA:1,2019-08-04T05:30:00Z,30.6671,-87.9365,1.0,0.9,11111222 
DISL,ioos:station:DISL:MHPA:1,2019-08-04T06:00:00Z,30.6671,-87.9365,1.0,0.9,11111222 
DISL,ioos:station:DISL:MHPA:1,2019-08-04T06:30:00Z,30.6671,-87.9365,1.0,0.92,11111222 
DISL,ioos:station:DISL:MHPA:1,2019-08-04T07:00:00Z,30.6671,-87.9365,1.0,0.94,11111222 
DISL,ioos:station:DISL:MHPA:1,2019-08-04T07:30:00Z,30.6671,-87.9365,1.0,0.97,11111222 
DISL,ioos:station:DISL:MHPA:1,2019-08-04T08:00:00Z,30.6671,-87.9365,1.1,1.01,11111222 
DISL,ioos:station:DISL:MHPA:1,2019-08-04T08:30:00Z,30.6671,-87.9365,1.1,1.0,11111222 
DISL,ioos:station:DISL:MHPA:1,2019-08-04T09:00:00Z,30.6671,-87.9365,1.1,1.01,11111222 
DISL,ioos:station:DISL:MHPA:1,2019-08-04T09:30:00Z,30.6671,-87.9365,1.2,1.04,11111222 
DISL,ioos:station:DISL:MHPA:1,2019-08-04T10:00:00Z,30.6671,-87.9365,1.2,1.0,11111222 
DISL,ioos:station:DISL:MHPA:1,2019-08-04T10:30:00Z,30.6671,-87.9365,1.2,1.02,11111222 
DISL,ioos:station:DISL:MHPA:1,2019-08-04T11:00:00Z,30.6671,-87.9365,1.3,1.08,11111222 
DISL,ioos:station:DISL:MHPA:1,2019-08-04T11:30:00Z,30.6671,-87.9365,1.3,1.05,11111222 
DISL,ioos:station:DISL:MHPA:1,2019-08-04T12:00:00Z,30.6671,-87.9365,1.3,1.02,11111222 
DISL,ioos:station:DISL:MHPA:1,2019-08-04T12:30:00Z,30.6671,-87.9365,1.3,0.99,11111222 
DISL,ioos:station:DISL:MHPA:1,2019-08-04T13:00:00Z,30.6671,-87.9365,1.3,1.02,11111222 
DISL,ioos:station:DISL:MHPA:1,2019-08-04T13:30:00Z,30.6671,-87.9365,1.3,1.01,11111222 
DISL,ioos:station:DISL:MHPA:1,2019-08-04T14:00:00Z,30.6671,-87.9365,1.3,1.0,11111222 
DISL,ioos:station:DISL:MHPA:1,2019-08-04T14:30:00Z,30.6671,-87.9365,1.3,0.97,11111222 
DISL,ioos:station:DISL:MHPA:1,2019-08-04T15:00:00Z,30.6671,-87.9365,1.3,0.96,11111222 
DISL,ioos:station:DISL:MHPA:1,2019-08-04T15:30:00Z,30.6671,-87.9365,1.3,0.98,11111222 
DISL,ioos:station:DISL:MHPA:1,2019-08-04T16:00:00Z,30.6671,-87.9365,1.3,1.01,11111222 
DISL,ioos:station:DISL:MHPA:1,2019-08-04T16:30:00Z,30.6671,-87.9365,1.3,1.01,11111222 
DISL,ioos:station:DISL:MHPA:1,2019-08-04T17:00:00Z,30.6671,-87.9365,1.3,1.0,11111222 
DISL,ioos:station:DISL:MHPA:1,2019-08-04T17:30:00Z,30.6671,-87.9365,1.3,1.01,11111222 
DISL,ioos:station:DISL:MHPA:1,2019-08-04T18:00:00Z,30.6671,-87.9365,1.4,1.01,11111222 
DISL,ioos:station:DISL:MHPA:1,2019-08-04T18:30:00Z,30.6671,-87.9365,1.4,1.01,11111222 
DISL,ioos:station:DISL:MHPA:1,2019-08-04T19:00:00Z,30.6671,-87.9365,1.4,0.99,11111222 
DISL,ioos:station:DISL:MHPA:1,2019-08-04T19:30:00Z,30.6671,-87.9365,1.5,0.99,11111222 
DISL,ioos:station:DISL:MHPA:1,2019-08-04T20:00:00Z,30.6671,-87.9365,1.4,1.01,11111222 
DISL,ioos:station:DISL:MHPA:1,2019-08-04T20:30:00Z,30.6671,-87.9365,1.4,1.03,11111222 
DISL,ioos:station:DISL:MHPA:1,2019-08-04T21:00:00Z,30.6671,-87.9365,1.4,1.02,11111222 
DISL,ioos:station:DISL:MHPA:1,2019-08-04T21:30:00Z,30.6671,-87.9365,1.4,1.04,11111222 
DISL,ioos:station:DISL:MHPA:1,2019-08-04T22:00:00Z,30.6671,-87.9365,1.4,1.04,11111222 
DISL,ioos:station:DISL:MHPA:1,2019-08-04T22:30:00Z,30.6671,-87.9365,1.4,1.03,11111222 
DISL,ioos:station:DISL:MHPA:1,2019-08-04T23:00:00Z,30.6671,-87.9365,1.3,1.0,11111222 
DISL,ioos:station:DISL:MHPA:1,2019-08-04T23:30:00Z,30.6671,-87.9365,1.3,0.98,11111222 
DISL,ioos:station:DISL:MHPA:1,2019-08-05T00:00:00Z,30.6671,-87.9365,1.3,0.98,11111222 
DISL,ioos:station:DISL:MHPA:1,2019-08-05T00:30:00Z,30.6671,-87.9365,1.3,0.98,11111222 
DISL,ioos:station:DISL:MHPA:1,2019-08-05T01:00:00Z,30.6671,-87.9365,1.2,0.99,11111222 
DISL,ioos:station:DISL:MHPA:1,2019-08-05T01:30:00Z,30.6671,-87.9365,1.2,1.01,11111222 
DISL,ioos:station:DISL:MHPA:1,2019-08-05T02:00:00Z,30.6671,-87.9365,1.2,1.0,11111222 
DISL,ioos:station:DISL:MHPA:1,2019-08-05T02:30:00Z,30.6671,-87.9365,1.2,0.99,11111222 
DISL,ioos:station:DISL:MHPA:1,2019-08-05T03:00:00Z,30.6671,-87.9365,1.1,0.99,11111222 
DISL,ioos:station:DISL:MHPA:1,2019-08-05T03:30:00Z,30.6671,-87.9365,1.1,1.0,11111222 
DISL,ioos:station:DISL:MHPA:1,2019-08-05T04:00:00Z,30.6671,-87.9365,1.1,1.06,11111222 
DISL,ioos:station:DISL:MHPA:1,2019-08-05T04:30:00Z,30.6671,-87.9365,1.1,1.04,11111222 
DISL,ioos:station:DISL:MHPA:1,2019-08-05T05:00:00Z,30.6671,-87.9365,1.1,1.01,11111222 
DISL,ioos:station:DISL:MHPA:1,2019-08-05T05:30:00Z,30.6671,-87.9365,1.0,1.0,11111222 
DISL,ioos:station:DISL:MHPA:1,2019-08-05T06:00:00Z,30.6671,-87.9365,1.0,0.99,11111222 
DISL,ioos:station:DISL:MHPA:1,2019-08-05T06:30:00Z,30.6671,-87.9365,1.0,1.0,11111222 
DISL,ioos:station:DISL:MHPA:1,2019-08-05T07:00:00Z,30.6671,-87.9365,1.0,1.0,11111222 
DISL,ioos:station:DISL:MHPA:1,2019-08-05T07:30:00Z,30.6671,-87.9365,1.1,1.0,11111222 
DISL,ioos:station:DISL:MHPA:1,2019-08-05T08:00:00Z,30.6671,-87.9365,1.2,1.0,11111222 
DISL,ioos:station:DISL:MHPA:1,2019-08-05T08:30:00Z,30.6671,-87.9365,1.1,1.01,11111222 
DISL,ioos:station:DISL:MHPA:1,2019-08-05T09:00:00Z,30.6671,-87.9365,1.2,1.01,11111222 
DISL,ioos:station:DISL:MHPA:1,2019-08-05T09:30:00Z,30.6671,-87.9365,1.2,1.01,11111222 
DISL,ioos:station:DISL:MHPA:1,2019-08-05T10:00:00Z,30.6671,-87.9365,1.2,1.01,11111222 
DISL,ioos:station:DISL:MHPA:1,2019-08-05T10:30:00Z,30.6671,-87.9365,1.2,1.02,11111222 
DISL,ioos:station:DISL:MHPA:1,2019-08-05T11:00:00Z,30.6671,-87.9365,1.3,1.02,11111222 
DISL,ioos:station:DISL:MHPA:1,2019-08-05T11:30:00Z,30.6671,-87.9365,1.3,1.02,11111222 
DISL,ioos:station:DISL:MHPA:1,2019-08-05T12:00:00Z,30.6671,-87.9365,1.4,1.03,11111222 
DISL,ioos:station:DISL:MHPA:1,2019-08-05T12:30:00Z,30.6671,-87.9365,1.4,1.04,11111222 
DISL,ioos:station:DISL:MHPA:1,2019-08-05T13:00:00Z,30.6671,-87.9365,1.3,1.04,11111222 
DISL,ioos:station:DISL:MHPA:1,2019-08-05T13:30:00Z,30.6671,-87.9365,1.4,1.03,11111222 
DISL,ioos:station:DISL:MHPA:1,2019-08-05T14:00:00Z,30.6671,-87.9365,1.3,1.03,11111222 
DISL,ioos:station:DISL:MHPA:1,2019-08-05T14:30:00Z,30.6671,-87.9365,1.3,1.03,11111222 
DISL,ioos:station:DISL:MHPA:1,2019-08-05T15:00:00Z,30.6671,-87.9365,1.3,1.03,11111222 
DISL,ioos:station:DISL:MHPA:1,2019-08-05T15:30:00Z,30.6671,-87.9365,1.3,1.03,11111222 
DISL,ioos:station:DISL:MHPA:1,2019-08-05T16:00:00Z,30.6671,-87.9365,1.2,1.03,11111222 
DISL,ioos:station:DISL:MHPA:1,2019-08-05T16:30:00Z,30.6671,-87.9365,1.2,1.03,11111222 
DISL,ioos:station:DISL:MHPA:1,2019-08-05T17:00:00Z,30.6671,-87.9365,1.2,1.01,11111222 
DISL,ioos:station:DISL:MHPA:1,2019-08-05T17:30:00Z,30.6671,-87.9365,1.2,0.98,11111222 
DISL,ioos:station:DISL:MHPA:1,2019-08-05T18:00:00Z,30.6671,-87.9365,1.2,0.97,11111222 
DISL,ioos:station:DISL:MHPA:1,2019-08-05T18:30:00Z,30.6671,-87.9365,1.3,0.94,11111222 
DISL,ioos:station:DISL:MHPA:1,2019-08-05T19:00:00Z,30.6671,-87.9365,1.3,0.95,11111222 
DISL,ioos:station:DISL:MHPA:1,2019-08-05T19:30:00Z,30.6671,-87.9365,1.3,0.96,11111222 
DISL,ioos:station:DISL:MHPA:1,2019-08-05T20:00:00Z,30.6671,-87.9365,1.3,1.01,11111222 
DISL,ioos:station:DISL:MHPA:1,2019-08-05T20:30:00Z,30.6671,-87.9365,1.3,1.02,11111222 
DISL,ioos:station:DISL:MHPA:1,2019-08-05T21:00:00Z,30.6671,-87.9365,1.3,1.0,11111222 
DISL,ioos:station:DISL:MHPA:1,2019-08-05T21:30:00Z,30.6671,-87.9365,1.3,1.0,11111222 
DISL,ioos:station:DISL:MHPA:1,2019-08-05T22:00:00Z,30.6671,-87.9365,1.3,1.0,11111222 
DISL,ioos:station:DISL:MHPA:1,2019-08-05T22:30:00Z,30.6671,-87.9365,1.3,0.99,11111222 
DISL,ioos:station:DISL:MHPA:1,2019-08-05T23:00:00Z,30.6671,-87.9365,1.3,0.99,11111222 
DISL,ioos:station:DISL:MHPA:1,2019-08-05T23:30:00Z,30.6671,-87.9365,1.3,0.99,11111222 
DISL,ioos:station:DISL:MHPA:1,2019-08-06T00:00:00Z,30.6671,-87.9365,1.3,0.99,11111222 
DISL,ioos:station:DISL:MHPA:1,2019-08-06T00:30:00Z,30.6671,-87.9365,1.3,1.0,11111222 
DISL,ioos:station:DISL:MHPA:1,2019-08-06T01:00:00Z,30.6671,-87.9365,1.2,1.0,11111222 
DISL,ioos:station:DISL:MHPA:1,2019-08-06T01:30:00Z,30.6671,-87.9365,1.2,1.0,11111222 
DISL,ioos:station:DISL:MHPA:1,2019-08-06T02:00:00Z,30.6671,-87.9365,1.2,1.0,11111222 
DISL,ioos:station:DISL:MHPA:1,2019-08-06T02:30:00Z,30.6671,-87.9365,1.2,1.0,11111222 
DISL,ioos:station:DISL:MHPA:1,2019-08-06T03:00:00Z,30.6671,-87.9365,1.2,1.0,11111222 
DISL,ioos:station:DISL:MHPA:1,2019-08-06T03:30:00Z,30.6671,-87.9365,1.1,1.0,11111222 
DISL,ioos:station:DISL:MHPA:1,2019-08-06T04:00:00Z,30.6671,-87.9365,1.1,1.0,11111222 
DISL,ioos:station:DISL:MHPA:1,2019-08-06T04:30:00Z,30.6671,-87.9365,1.1,1.0,11111222 
DISL,ioos:station:DISL:MHPA:1,2019-08-06T05:00:00Z,30.6671,-87.9365,1.1,1.0,11111222 
DISL,ioos:station:DISL:MHPA:1,2019-08-06T05:30:00Z,30.6671,-87.9365,1.1,1.0,11111222 
DISL,ioos:station:DISL:MHPA:1,2019-08-06T06:00:00Z,30.6671,-87.9365,1.1,1.0,11111222 
DISL,ioos:station:DISL:MHPA:1,2019-08-06T06:30:00Z,30.6671,-87.9365,1.2,1.0,11111222 
DISL,ioos:station:DISL:MHPA:1,2019-08-06T07:00:00Z,30.6671,-87.9365,1.1,1.0,11111222 
DISL,ioos:station:DISL:MHPA:1,2019-08-06T07:30:00Z,30.6671,-87.9365,1.2,1.0,11111222 
DISL,ioos:station:DISL:MHPA:1,2019-08-06T08:00:00Z,30.6671,-87.9365,1.2,1.0,11111222 
DISL,ioos:station:DISL:MHPA:1,2019-08-06T08:30:00Z,30.6671,-87.9365,1.3,1.0,11111222 
DISL,ioos:station:DISL:MHPA:1,2019-08-06T09:00:00Z,30.6671,-87.9365,1.2,1.0,11111222 
DISL,ioos:station:DISL:MHPA:1,2019-08-06T09:30:00Z,30.6671,-87.9365,1.3,0.98,11111222 
DISL,ioos:station:DISL:MHPA:1,2019-08-06T10:00:00Z,30.6671,-87.9365,1.3,0.98,11111222 
DISL,ioos:station:DISL:MHPA:1,2019-08-06T10:30:00Z,30.6671,-87.9365,1.3,0.99,11111222 
DISL,ioos:station:DISL:MHPA:1,2019-08-06T11:00:00Z,30.6671,-87.9365,1.4,0.99,11111222 
DISL,ioos:station:DISL:MHPA:1,2019-08-06T11:30:00Z,30.6671,-87.9365,1.4,0.99,11111222 
DISL,ioos:station:DISL:MHPA:1,2019-08-06T12:00:00Z,30.6671,-87.9365,1.4,0.99,11111222 
DISL,ioos:station:DISL:MHPA:1,2019-08-06T12:30:00Z,30.6671,-87.9365,1.4,1.0,11111222 
DISL,ioos:station:DISL:MHPA:1,2019-08-06T13:00:00Z,30.6671,-87.9365,1.4,1.0,11111222 
DISL,ioos:station:DISL:MHPA:1,2019-08-06T13:30:00Z,30.6671,-87.9365,1.3,0.99,11111222 
DISL,ioos:station:DISL:MHPA:1,2019-08-06T14:00:00Z,30.6671,-87.9365,1.3,0.98,11111222 
DISL,ioos:station:DISL:MHPA:1,2019-08-06T14:30:00Z,30.6671,-87.9365,1.3,0.98,11111222 
DISL,ioos:station:DISL:MHPA:1,2019-08-06T15:00:00Z,30.6671,-87.9365,1.2,0.98,11111222 
DISL,ioos:station:DISL:MHPA:1,2019-08-06T15:30:00Z,30.6671,-87.9365,1.2,0.98,11111222 
DISL,ioos:station:DISL:MHPA:1,2019-08-06T16:00:00Z,30.6671,-87.9365,1.2,0.98,11111222 
DISL,ioos:station:DISL:MHPA:1,2019-08-06T16:30:00Z,30.6671,-87.9365,1.1,0.98,11111222 
DISL,ioos:station:DISL:MHPA:1,2019-08-06T17:00:00Z,30.6671,-87.9365,1.1,0.98,11111222 